When you browse on this site, cookies collect data to enhance your experience and personalize the content and advertising you see.
Visit our Privacy Policy to learn more. By continuing to use the site, you agree to this use of cookies and data.

Hourly Weather Goteborg

Today, 4 July, Saturday

Time Temperature Precipitation Wind Pressure Humidity
00:00 +13°C° 1 mm 6 mps 752 mmHg 96%
01:00 +12°C° 0 mm 7 mps 752 mmHg 97%
02:00 +12°C° 2.1 mm 7 mps 751 mmHg 97%
03:00 +12°C° 2.1 mm 7 mps 751 mmHg 97%
04:00 +14°C° 2.1 mm 7 mps 750 mmHg 97%
05:00 +14°C° 1.2 mm 7 mps 750 mmHg 97%
06:00 +15°C° 1.2 mm 8 mps 750 mmHg 96%
07:00 +15°C° 1.2 mm 8 mps 749 mmHg 95%
08:00 +15°C° 0.9 mm 7 mps 750 mmHg 95%
09:00 +16°C° 0.9 mm 7 mps 750 mmHg 94%
10:00 +16°C° 0.9 mm 7 mps 750 mmHg 93%
11:00 +16°C° 0.4 mm 6 mps 750 mmHg 90%
12:00 +17°C° 0.4 mm 5 mps 751 mmHg 87%
13:00 +19°C° 0.4 mm 4 mps 751 mmHg 84%
14:00 +19°C° 0.1 mm 4 mps 751 mmHg 82%
15:00 +19°C° 0.1 mm 4 mps 751 mmHg 79%
16:00 +19°C° 0.1 mm 4 mps 750 mmHg 76%
17:00 +18°C° 0.1 mm 4 mps 750 mmHg 80%
18:00 +17°C° 0.1 mm 3 mps 750 mmHg 83%
19:00 +17°C° 0.1 mm 3 mps 750 mmHg 87%
20:00 +16°C° 0.2 mm 3 mps 750 mmHg 90%
21:00 +16°C° 0.2 mm 3 mps 750 mmHg 93%
22:00 +14°C° 0.2 mm 3 mps 750 mmHg 96%
23:00 +14°C° 0.4 mm 3 mps 750 mmHg 97%

Tomorrow, 5 July, Sunday

Time Temperature Precipitation Wind Pressure Humidity
00:00 +14°C° 0.4 mm 4 mps 750 mmHg 97%
01:00 +14°C° 0.4 mm 5 mps 750 mmHg 97%
02:00 +14°C° 0 mm 4 mps 750 mmHg 97%
03:00 +14°C° 0 mm 4 mps 749 mmHg 96%
04:00 +13°C° 0 mm 4 mps 749 mmHg 95%
05:00 +13°C° 0.5 mm 4 mps 748 mmHg 96%
06:00 +14°C° 0.5 mm 3 mps 748 mmHg 97%
07:00 +14°C° 0.5 mm 3 mps 747 mmHg 97%
08:00 +14°C° 0.8 mm 4 mps 747 mmHg 97%
09:00 +15°C° 0.8 mm 6 mps 746 mmHg 97%
10:00 +15°C° 0.8 mm 8 mps 745 mmHg 97%
11:00 +16°C° 2.6 mm 9 mps 744 mmHg 96%
12:00 +16°C° 2.6 mm 10 mps 744 mmHg 94%
13:00 +17°C° 2.6 mm 10 mps 743 mmHg 93%
14:00 +17°C° 0.4 mm 11 mps 743 mmHg 83%
15:00 +18°C° 0.4 mm 11 mps 743 mmHg 73%
16:00 +19°C° 0.4 mm 11 mps 743 mmHg 63%
17:00 +17°C° 0.2 mm 11 mps 743 mmHg 67%
18:00 +16°C° 0.2 mm 11 mps 743 mmHg 72%
19:00 +14°C° 0.2 mm 11 mps 743 mmHg 76%
20:00 +13°C° 0.2 mm 11 mps 743 mmHg 76%
21:00 +13°C° 0.2 mm 11 mps 743 mmHg 76%
22:00 +12°C° 0.2 mm 11 mps 743 mmHg 75%
23:00 +11°C° 0.6 mm 11 mps 743 mmHg 80%

Day after tomorrow, 6 July, Monday

Time Temperature Precipitation Wind Pressure Humidity
00:00 +11°C° 0.6 mm 11 mps 743 mmHg 85%
01:00 +11°C° 0.6 mm 11 mps 743 mmHg 89%
02:00 +11°C° 0.7 mm 11 mps 743 mmHg 90%
03:00 +9°C° 0.7 mm 11 mps 743 mmHg 90%
04:00 +9°C° 0.7 mm 11 mps 743 mmHg 91%
05:00 +11°C° 0.6 mm 11 mps 743 mmHg 90%
06:00 +11°C° 0.6 mm 11 mps 742 mmHg 90%
07:00 +11°C° 0.6 mm 10 mps 742 mmHg 90%
08:00 +12°C° 0.4 mm 11 mps 742 mmHg 87%
09:00 +12°C° 0.4 mm 11 mps 742 mmHg 85%
10:00 +13°C° 0.4 mm 12 mps 742 mmHg 82%
11:00 +13°C° 0.5 mm 12 mps 742 mmHg 83%
12:00 +13°C° 0.5 mm 12 mps 742 mmHg 84%
13:00 +13°C° 0.5 mm 12 mps 743 mmHg 85%
14:00 +13°C° 0.2 mm 12 mps 743 mmHg 82%
15:00 +13°C° 0.2 mm 12 mps 743 mmHg 80%
16:00 +14°C° 0.2 mm 11 mps 744 mmHg 77%
17:00 +14°C° 0.4 mm 11 mps 744 mmHg 79%
18:00 +14°C° 0.4 mm 10 mps 745 mmHg 80%
19:00 +15°C° 0.4 mm 9 mps 745 mmHg 82%
20:00 +13°C° 0.3 mm 8 mps 746 mmHg 85%
21:00 +13°C° 0.3 mm 8 mps 747 mmHg 88%
22:00 +12°C° 0.3 mm 7 mps 747 mmHg 91%
23:00 +12°C° 0.3 mm 7 mps 748 mmHg 91%

7 July, Tuesday

Time Temperature Precipitation Wind Pressure Humidity
00:00 +12°C° 0.3 mm 7 mps 749 mmHg 90%
01:00 +12°C° 0.3 mm 8 mps 749 mmHg 89%
02:00 +11°C° 0.1 mm 8 mps 750 mmHg 88%
03:00 +11°C° 0.1 mm 9 mps 750 mmHg 86%
04:00 +11°C° 0.1 mm 9 mps 751 mmHg 84%
05:00 +11°C° 0.2 mm 9 mps 751 mmHg 81%
06:00 +11°C° 0.2 mm 9 mps 752 mmHg 78%
07:00 +11°C° 0.2 mm 10 mps 752 mmHg 74%
08:00 +12°C° 0 mm 9 mps 753 mmHg 67%
09:00 +13°C° 0 mm 9 mps 753 mmHg 60%
10:00 +15°C° 0 mm 9 mps 753 mmHg 52%
11:00 +15°C° 0.2 mm 8 mps 753 mmHg 55%
12:00 +15°C° 0.2 mm 8 mps 753 mmHg 58%
13:00 +15°C° 0.2 mm 8 mps 753 mmHg 60%
14:00 +14°C° 0.7 mm 7 mps 753 mmHg 67%
15:00 +14°C° 0.7 mm 6 mps 753 mmHg 74%
16:00 +13°C° 0.7 mm 6 mps 754 mmHg 80%
17:00 +13°C° 0.3 mm 5 mps 754 mmHg 80%
18:00 +13°C° 0.3 mm 5 mps 754 mmHg 79%
19:00 +13°C° 0.3 mm 4 mps 754 mmHg 78%
20:00 +12°C° 0 mm 4 mps 754 mmHg 83%
21:00 +10°C° 0 mm 4 mps 755 mmHg 87%
22:00 +8°C° 0 mm 4 mps 755 mmHg 92%
23:00 +8°C° 0 mm 4 mps 755 mmHg 90%

8 July, Wednesday

Time Temperature Precipitation Wind Pressure Humidity
00:00 +8°C° 0 mm 4 mps 755 mmHg 89%
01:00 +8°C° 0 mm 4 mps 756 mmHg 87%
02:00 +10°C° 0 mm 4 mps 756 mmHg 88%
03:00 +10°C° 0 mm 4 mps 756 mmHg 89%
04:00 +10°C° 0 mm 4 mps 756 mmHg 90%
05:00 +11°C° 0 mm 4 mps 756 mmHg 84%
06:00 +13°C° 0 mm 5 mps 756 mmHg 79%
07:00 +15°C° 0 mm 5 mps 756 mmHg 73%
08:00 +15°C° 0 mm 5 mps 756 mmHg 70%
09:00 +15°C° 0 mm 5 mps 756 mmHg 66%
10:00 +16°C° 0 mm 5 mps 756 mmHg 62%
11:00 +15°C° 0.3 mm 5 mps 755 mmHg 66%
12:00 +15°C° 0.3 mm 6 mps 755 mmHg 71%
13:00 +14°C° 0.3 mm 6 mps 754 mmHg 75%
14:00 +12°C° 2.1 mm 7 mps 754 mmHg 83%
15:00 +12°C° 2.1 mm 8 mps 753 mmHg 90%
16:00 +11°C° 2.1 mm 9 mps 752 mmHg 97%
17:00 +12°C° 1.2 mm 9 mps 751 mmHg 96%
18:00 +13°C° 1.2 mm 8 mps 751 mmHg 95%
19:00 +13°C° 1.2 mm 8 mps 750 mmHg 94%
20:00 +13°C° 0.3 mm 8 mps 750 mmHg 94%
21:00 +12°C° 0.3 mm 8 mps 749 mmHg 94%
22:00 +11°C° 0.3 mm 8 mps 749 mmHg 94%
23:00 +12°C° 0.5 mm 8 mps 748 mmHg 94%

9 July, Thursday

Time Temperature Precipitation Wind Pressure Humidity
00:00 +12°C° 0.5 mm 8 mps 748 mmHg 95%
01:00 +12°C° 0.5 mm 7 mps 747 mmHg 95%
02:00 +12°C° 0.4 mm 7 mps 747 mmHg 95%
03:00 +13°C° 0.4 mm 6 mps 747 mmHg 95%
04:00 +13°C° 0.4 mm 6 mps 747 mmHg 96%
05:00 +14°C° 0.4 mm 6 mps 747 mmHg 93%
06:00 +14°C° 0.4 mm 6 mps 748 mmHg 90%
07:00 +15°C° 0.4 mm 6 mps 748 mmHg 88%
08:00 +15°C° 0.1 mm 7 mps 749 mmHg 80%
09:00 +16°C° 0.1 mm 7 mps 749 mmHg 72%
10:00 +17°C° 0.1 mm 7 mps 750 mmHg 64%
11:00 +18°C° 0 mm 7 mps 750 mmHg 61%
12:00 +18°C° 0 mm 7 mps 751 mmHg 57%
13:00 +20°C° 0 mm 7 mps 751 mmHg 53%
14:00 +20°C° 0 mm 7 mps 751 mmHg 52%
15:00 +20°C° 0 mm 8 mps 752 mmHg 51%
16:00 +20°C° 0 mm 8 mps 752 mmHg 50%
17:00 +18°C° 0 mm 9 mps 752 mmHg 53%
18:00 +18°C° 0 mm 9 mps 752 mmHg 55%
19:00 +17°C° 0 mm 9 mps 753 mmHg 58%
20:00 +16°C° 0 mm 9 mps 753 mmHg 62%
21:00 +15°C° 0 mm 8 mps 753 mmHg 66%
22:00 +13°C° 0 mm 8 mps 753 mmHg 71%
23:00 +12°C° 0.1 mm 7 mps 754 mmHg 74%
Show more